Regional Weather Roundup
Issued by NWS

Home | Current Version | Previous Version | Graphics & Text | Print | Product List | Glossary Off
Versions: 1 2 3 4 5 6 7 8 9 10 11 12 13 14 15 16 17 18 19 20 21 22 23 24 25 26 27 28 29 30 31 32 33 34 35 36 37 38 39 40 41 42 43 44 45 46 47 48 49 50

000
ASUS45 KBOU 200607
RWRCO

WEATHER ROUNDUP FOR COLORADO
NATIONAL WEATHER SERVICE DENVER/BOULDER CO
1100 PM MST FRI DEC 19 2014

NOTE: "FAIR" INDICATES FEW OR NO CLOUDS BELOW 12000 FEET WITH NO
SIGNIFICANT WEATHER AND/OR OBSTRUCTIONS TO VISIBILITY.

COZ001>005-013-030-031-200700-
...NORTHWEST COLORADO...

CITY           SKY/WX    TMP DP  RH WIND       PRES   REMARKS
CRAIG          CLOUDY    19  16  88 CALM      30.19R
HAYDEN         CLOUDY    19  14  79 SE8       30.17R WCI   9
MEEKER         CLOUDY    20  16  84 E5        30.18S WCI  13
MOUNT WERNER   NOT AVBL
STEAMBOAT SPGS CLOUDY    16  13  91 CALM      30.18S
WALDEN         MOCLDY    18  10  73 SE7       30.11S WCI   8
$$

COZ006>008-011-200700-
...WEST CENTRAL VALLEYS...

CITY           SKY/WX    TMP DP  RH WIND       PRES   REMARKS
GRAND JUNCTION MOCLDY    30  27  88 CALM      30.23R
MONTROSE       CLEAR     25  21  85 SE5       30.24R WCI  19
EAGLE          CLEAR     16  14  93 E10       30.23R WCI   3
RIFLE          MOCLDY    25  21  85 E6        30.23R WCI  18
DELTA          CLEAR     28  23  82 NE6       30.24S WCI  21
NUCLA          CLEAR     28  23  80 SE8       30.25S WCI  20
$$

COZ017>023-064>068-200700-
...SOUTHWEST COLORADO...

CITY           SKY/WX    TMP DP  RH WIND       PRES   REMARKS
DURANGO        PTCLDY    24  21  88 NE3       30.18S
CORTEZ         CLEAR     24  22  91 NE7       30.21S WCI  16
PAGOSA SPRINGS PTCLDY    20  18  92 CALM      30.19S
TELLURIDE      PTCLDY    17  13  86 CALM      30.19R
WOLF CREEK PAS PTCLDY    19   1  45 MISG      30.17R
$$

COZ009-010-012-014-032>034-037-058>063-200700-
...CENTRAL COLORADO...

CITY           SKY/WX    TMP DP  RH WIND       PRES   REMARKS
ASPEN          PTCLDY     9   4  80 S7        30.17R WCI  -2
BUENA VISTA    PTCLDY    20   9  61 CALM      30.12F
COPPER MTN     PTCLDY    18  10  73 W16       30.13R WCI   3
BERTHOUD PASS  MOCLDY     9   3  78 MISG      30.07R
COTTONWOOD PAS PTCLDY    27   9  46 NW8       30.10F WCI  18
GUNNISON       PTCLDY    10   7  85 CALM      30.23S
KREMMLING      PTCLDY     9   5  85 CALM      30.21R
LEADVILLE      PTCLDY     7   1  76 N6        30.11R WCI  -3
MONARCH PASS     N/A     10   9  92 MISG      30.22S
SALIDA         PTCLDY    28  11  48 NW15      30.19S WCI  17
SUNLIGHT       PTCLDY   N/A N/A N/A CALM      30.17R
WILKERSON PASS MOCLDY    21   9  58 NW9G18    30.12S WCI  11
$$

COZ069>075-200700-
...SAN LUIS VALLEY/SANGRE DE CRISTO MOUNTAINS...

CITY           SKY/WX    TMP DP  RH WIND       PRES   REMARKS
ALAMOSA        MOCLDY    13   8  81 N6        30.16S WCI   4
LA VETA PASS   MOCLDY    18  10  73 MISG      30.10R
SAGUACHE       MOCLDY    21  10  63 NW10      30.17S WCI  10
$$

COZ035-036-038>040-200700-
...NORTHERN COLORADO FRONT RANGE...

CITY           SKY/WX    TMP DP  RH WIND       PRES   REMARKS
DENVER INTL AP MOCLDY    32  16  51 S12       29.99S WCI  23
DMNS CITY PARK   N/A     31  17  55 S2        29.99S
AURORA         MOCLDY    30  16  54 S12       30.00F WCI  21
FRONT RANGE AP MOCLDY    34  19  55 SW9       30.00S WCI  26
ERIE MUNI ARPT   N/A     24  15  70 CALM      30.01R
BOULDER MUN AP MOCLDY    32  16  51 CALM      30.01R
CENTENNIAL     MOCLDY    35  15  44 S13       29.99F WCI  26
BROOMFIELD     MOCLDY    32  14  47 NW6       30.00R WCI  26
FORT COLLINS   PTCLDY    28  16  59 CALM      30.02S
LONGMONT       PTCLDY    24  16  73 NW6       30.04R WCI  17
$$

COZ041-046-047-076>085-087-088-200700-
...PIKES PEAK/PALMER DIVIDE AND SOUTHERN FOOTHILLS...

CITY           SKY/WX    TMP DP  RH WIND       PRES   REMARKS
COLO. SPRINGS  MOCLDY    25  18  74 N6        30.05F WCI  18
A. F. ACADEMY  MOCLDY    21  13  73 N8        30.04F WCI  11
ELLICOTT       NOT AVBL
FALCON         MOCLDY    25  19  77 W6        30.05F WCI  18
FORT CARSON    MOCLDY    27  18  69 NW6       30.04S WCI  20
LIMON          PTCLDY    20  18  92 N3        30.04S
MONUMENT HILL  MOCLDY    27  18  69 S8        30.02S WCI  18
TRINIDAD       PTCLDY    24  16  71 NW8       30.07S WCI  15
$$

COZ042>045-048>051-090-091-200700-
...NORTHEAST COLORADO...

CITY           SKY/WX    TMP DP  RH WIND       PRES   REMARKS
GREELEY ARPT   PTCLDY    18   9  68 NW8       30.01R WCI   7
AKRON          PTCLDY    30  23  75 SW9       30.01S WCI  22
BURLINGTON     MOCLDY    31  26  82 SW12      30.05R WCI  22
WRAY           CLEAR     29  25  84 SW9       30.03F WCI  20
STERLING       FOG       14  12  92 SW3       30.02S VSB 1/4
HOLYOKE        CLEAR     21  18  86 W6        30.03S WCI  14
FORT MORGAN    PTCLDY    27  16  63 W5        30.02S WCI  22
$$

COZ086-089-092>099-200700-
...SOUTHEAST COLORADO...

CITY           SKY/WX    TMP DP  RH WIND       PRES   REMARKS
PUEBLO         MOCLDY    26  20  77 SE3       30.05S
LA JUNTA       PTCLDY    25  21  85 NW3       30.06S
LAMAR          CLEAR     22  19  89 CALM      30.06S
SPRINGFIELD      N/A     25  22  88 SW6       30.06S WCI  18
$$


USA.gov is the U.S. government's official web portal to all federal, state and local government web resources and services.